Location: Newark
(54.6833°N, 25.2833°E)
Time: 09:55:56
(UTC+00:00)

Tiros 1 despin weight - Pass Details

Date: 17 November 2019
Orbit: 594 x 642 km, 48.2° (Epoch: 08 December)

Event Time Altitude Azimuth Distance (km) Brightness Sun altitude
Rises 12:05:32 0° 203° (SSW) 2,821 ? 11.9°
Reaches altitude 10° 12:08:43 10° 179° (S) 1,927 ? 11.7°
Maximum altitude 12:11:05 14° 146° (SSE) 1,666 ? 11.5°
Drops below altitude 10° 12:13:28 10° 114° (ESE) 1,941 ? 11.3°
Sets 12:16:42 0° 90° (E) 2,857 ? 11.1°
